Time,TemperatureF,DewpointF,PressureIn,WindDirection,WindDirectionDegrees,WindSpeedMPH,WindSpeedGustMPH,Humidity,HourlyPrecipIn,Conditions,Clouds,dailyrainin,SoftwareType,DateUTC
2013-03-01 00:00:00,33.0,31.0,-100.00,North,354,6.0,-999.0,93,0.00,,,-99.99,,2013-03-01 05:00:00,
2013-03-01 00:22:00,33.0,31.0,-100.00,North,354,6.0,-999.0,93,0.00,,,-99.99,,2013-03-01 05:22:00,
2013-03-01 00:33:00,33.0,31.0,-100.00,North,354,6.0,-999.0,93,0.00,,,-99.99,,2013-03-01 05:33:00,
2013-03-01 00:42:00,33.0,31.0,-100.00,North,354,6.0,-999.0,93,0.00,,,-99.99,,2013-03-01 05:42:00,
2013-03-01 00:53:00,33.0,31.0,-100.00,North,354,6.0,-999.0,93,0.00,,,-99.99,,2013-03-01 05:53:00,
2013-03-01 01:00:00,32.0,30.0,-100.00,North,358,7.0,-999.0,90,0.00,,,-99.99,,2013-03-01 06:00:00,
2013-03-01 01:22:00,32.0,30.0,-100.00,North,358,7.0,-999.0,90,0.00,,,-99.99,,2013-03-01 06:22:00,
2013-03-01 01:32:00,32.0,30.0,-100.00,North,358,7.0,-999.0,90,0.00,,,-99.99,,2013-03-01 06:32:00,
2013-03-01 01:42:00,32.0,30.0,-100.00,North,358,7.0,-999.0,90,0.00,,,-99.99,,2013-03-01 06:42:00,
2013-03-01 01:53:00,32.0,30.0,-100.00,North,358,7.0,-999.0,90,0.00,,,-99.99,,2013-03-01 06:53:00,
2013-03-01 02:00:00,32.0,29.0,-100.00,North,4,8.0,-999.0,90,0.00,,,-99.99,,2013-03-01 07:00:00,
2013-03-01 02:22:00,32.0,29.0,-100.00,North,4,8.0,-999.0,90,0.00,,,-99.99,,2013-03-01 07:22:00,
2013-03-01 02:32:00,32.0,29.0,-100.00,North,4,8.0,-999.0,90,0.00,,,-99.99,,2013-03-01 07:32:00,
2013-03-01 02:42:00,32.0,29.0,-100.00,North,4,8.0,-999.0,90,0.00,,,-99.99,,2013-03-01 07:42:00,
2013-03-01 02:52:00,32.0,29.0,-100.00,North,4,8.0,-999.0,90,0.00,,,-99.99,,2013-03-01 07:52:00,
2013-03-01 03:00:00,32.0,29.0,-100.00,NNW,347,7.0,-999.0,90,0.00,,,-99.99,,2013-03-01 08:00:00,
2013-03-01 03:22:00,32.0,29.0,-100.00,NNW,347,7.0,-999.0,90,0.00,,,-99.99,,2013-03-01 08:22:00,
2013-03-01 03:32:00,32.0,29.0,-100.00,NNW,347,7.0,-999.0,90,0.00,,,-99.99,,2013-03-01 08:32:00,
2013-03-01 03:43:00,32.0,29.0,-100.00,NNW,347,7.0,-999.0,90,0.00,,,-99.99,,2013-03-01 08:43:00,
2013-03-01 03:53:00,32.0,29.0,-100.00,NNW,347,7.0,-999.0,90,0.00,,,-99.99,,2013-03-01 08:53:00,
2013-03-01 04:00:00,31.0,29.0,-100.00,NNW,336,6.0,-999.0,91,0.00,,,-99.99,,2013-03-01 09:00:00,
2013-03-01 04:22:00,31.0,29.0,-100.00,NNW,336,6.0,-999.0,91,0.00,,,-99.99,,2013-03-01 09:22:00,
2013-03-01 04:32:00,31.0,29.0,-100.00,NNW,336,6.0,-999.0,91,0.00,,,-99.99,,2013-03-01 09:32:00,
2013-03-01 04:42:00,31.0,29.0,-100.00,NNW,336,6.0,-999.0,91,0.00,,,-99.99,,2013-03-01 09:42:00,
2013-03-01 04:53:00,31.0,29.0,-100.00,NNW,336,6.0,-999.0,91,0.00,,,-99.99,,2013-03-01 09:53:00,
2013-03-01 05:00:00,31.0,28.0,-100.00,NNW,335,6.0,-999.0,91,0.00,,,-99.99,,2013-03-01 10:00:00,
2013-03-01 05:22:00,31.0,28.0,-100.00,NNW,335,6.0,-999.0,91,0.00,,,-99.99,,2013-03-01 10:22:00,
2013-03-01 05:32:00,31.0,28.0,-100.00,NNW,335,6.0,-999.0,91,0.00,,,-99.99,,2013-03-01 10:32:00,
2013-03-01 05:42:00,31.0,28.0,-100.00,NNW,335,6.0,-999.0,91,0.00,,,-99.99,,2013-03-01 10:42:00,
2013-03-01 05:53:00,31.0,28.0,-100.00,NNW,335,6.0,-999.0,91,0.00,,,-99.99,,2013-03-01 10:53:00,
2013-03-01 06:00:00,30.0,28.0,-100.00,NNW,331,6.0,-999.0,92,0.00,,,-99.99,,2013-03-01 11:00:00,
2013-03-01 06:23:00,30.0,28.0,-100.00,NNW,331,6.0,-999.0,92,0.00,,,-99.99,,2013-03-01 11:23:00,
2013-03-01 06:32:00,30.0,28.0,-100.00,NNW,331,6.0,-999.0,92,0.00,,,-99.99,,2013-03-01 11:32:00,
2013-03-01 06:42:00,30.0,28.0,-100.00,NNW,331,6.0,-999.0,92,0.00,,,-99.99,,2013-03-01 11:42:00,
2013-03-01 06:52:00,30.0,28.0,-100.00,NNW,331,6.0,-999.0,92,0.00,,,-99.99,,2013-03-01 11:52:00,
2013-03-01 07:00:00,31.0,28.0,-100.00,NNW,340,5.0,-999.0,89,0.01,,,-99.99,,2013-03-01 12:00:00,
2013-03-01 07:22:00,31.0,28.0,-100.00,NNW,340,5.0,-999.0,89,0.01,,,-99.99,,2013-03-01 12:22:00,
2013-03-01 07:32:00,31.0,28.0,-100.00,NNW,340,5.0,-999.0,89,0.01,,,-99.99,,2013-03-01 12:32:00,
2013-03-01 07:42:00,31.0,28.0,-100.00,NNW,340,5.0,-999.0,89,0.01,,,-99.99,,2013-03-01 12:42:00,
2013-03-01 07:52:00,31.0,28.0,-100.00,NNW,340,5.0,-999.0,89,0.01,,,-99.99,,2013-03-01 12:52:00,
2013-03-01 08:00:00,32.0,29.0,-100.00,North,5,6.0,-999.0,86,0.00,,,-99.99,,2013-03-01 13:00:00,
2013-03-01 08:22:00,32.0,29.0,-100.00,North,5,6.0,-999.0,86,0.00,,,-99.99,,2013-03-01 13:22:00,
2013-03-01 08:32:00,32.0,29.0,-100.00,North,5,6.0,-999.0,86,0.00,,,-99.99,,2013-03-01 13:32:00,
2013-03-01 08:42:00,32.0,29.0,-100.00,North,5,6.0,-999.0,86,0.00,,,-99.99,,2013-03-01 13:42:00,
2013-03-01 08:52:00,32.0,29.0,-100.00,North,5,6.0,-999.0,86,0.00,,,-99.99,,2013-03-01 13:52:00,
2013-03-01 09:00:00,35.0,29.0,-100.00,North,5,7.0,-999.0,77,0.00,,,-99.99,,2013-03-01 14:00:00,
2013-03-01 09:22:00,35.0,29.0,-100.00,North,5,7.0,-999.0,77,0.00,,,-99.99,,2013-03-01 14:22:00,
2013-03-01 09:32:00,35.0,29.0,-100.00,North,5,7.0,-999.0,77,0.00,,,-99.99,,2013-03-01 14:32:00,
2013-03-01 09:42:00,35.0,29.0,-100.00,North,5,7.0,-999.0,77,0.00,,,-99.99,,2013-03-01 14:42:00,
2013-03-01 09:52:00,35.0,29.0,-100.00,North,5,7.0,-999.0,77,0.00,,,-99.99,,2013-03-01 14:52:00,
2013-03-01 10:00:00,35.0,28.0,-100.00,North,6,6.0,-999.0,76,0.00,,,-99.99,,2013-03-01 15:00:00,
2013-03-01 10:11:00,35.0,28.0,-100.00,North,6,6.0,-999.0,76,0.00,,,-99.99,,2013-03-01 15:11:00,
2013-03-01 10:21:00,35.0,28.0,-100.00,North,6,6.0,-999.0,76,0.00,,,-99.99,,2013-03-01 15:21:00,
2013-03-01 10:32:00,35.0,28.0,-100.00,North,6,6.0,-999.0,76,0.00,,,-99.99,,2013-03-01 15:32:00,
2013-03-01 10:42:00,35.0,28.0,-100.00,North,6,6.0,-999.0,76,0.00,,,-99.99,,2013-03-01 15:42:00,
2013-03-01 10:52:00,35.0,28.0,-100.00,North,6,6.0,-999.0,76,0.00,,,-99.99,,2013-03-01 15:52:00,
2013-03-01 11:00:00,36.0,28.0,-100.00,North,6,11.0,-999.0,74,0.00,,,-99.99,,2013-03-01 16:00:00,
2013-03-01 11:22:00,36.0,28.0,-100.00,North,6,11.0,-999.0,74,0.00,,,-99.99,,2013-03-01 16:22:00,
2013-03-01 11:32:00,36.0,28.0,-100.00,North,6,11.0,-999.0,74,0.00,,,-99.99,,2013-03-01 16:32:00,
2013-03-01 11:42:00,36.0,28.0,-100.00,North,6,11.0,-999.0,74,0.00,,,-99.99,,2013-03-01 16:42:00,
2013-03-01 11:52:00,36.0,28.0,-100.00,North,6,11.0,-999.0,74,0.00,,,-99.99,,2013-03-01 16:52:00,
2013-03-01 12:00:00,36.0,28.0,-100.00,North,6,8.0,-999.0,73,0.00,,,-99.99,,2013-03-01 17:00:00,
2013-03-01 12:21:00,36.0,28.0,-100.00,North,6,8.0,-999.0,73,0.00,,,-99.99,,2013-03-01 17:21:00,
2013-03-01 12:32:00,36.0,28.0,-100.00,North,6,8.0,-999.0,73,0.00,,,-99.99,,2013-03-01 17:32:00,
2013-03-01 12:42:00,36.0,28.0,-100.00,North,6,8.0,-999.0,73,0.00,,,-99.99,,2013-03-01 17:42:00,
2013-03-01 12:52:00,36.0,28.0,-100.00,North,6,8.0,-999.0,73,0.00,,,-99.99,,2013-03-01 17:52:00,
2013-03-01 13:00:00,36.0,28.0,-100.00,NNW,348,8.0,-999.0,72,0.00,,,-99.99,,2013-03-01 18:00:00,
2013-03-01 13:22:00,36.0,28.0,-100.00,NNW,348,8.0,-999.0,72,0.00,,,-99.99,,2013-03-01 18:22:00,
2013-03-01 13:32:00,36.0,28.0,-100.00,NNW,348,8.0,-999.0,72,0.00,,,-99.99,,2013-03-01 18:32:00,
2013-03-01 13:42:00,36.0,28.0,-100.00,NNW,348,8.0,-999.0,72,0.00,,,-99.99,,2013-03-01 18:42:00,
2013-03-01 13:52:00,36.0,28.0,-100.00,NNW,348,8.0,-999.0,72,0.00,,,-99.99,,2013-03-01 18:52:00,
2013-03-01 14:00:00,36.0,29.0,-100.00,North,6,7.0,-999.0,76,0.00,,,-99.99,,2013-03-01 19:00:00,
2013-03-01 14:21:00,36.0,29.0,-100.00,North,6,7.0,-999.0,76,0.00,,,-99.99,,2013-03-01 19:21:00,
2013-03-01 14:32:00,36.0,29.0,-100.00,North,6,7.0,-999.0,76,0.00,,,-99.99,,2013-03-01 19:32:00,
2013-03-01 14:42:00,36.0,29.0,-100.00,North,6,7.0,-999.0,76,0.00,,,-99.99,,2013-03-01 19:42:00,
2013-03-01 14:52:00,36.0,29.0,-100.00,North,6,7.0,-999.0,76,0.00,,,-99.99,,2013-03-01 19:52:00,
2013-03-01 15:00:00,36.0,28.0,-100.00,North,352,8.0,-999.0,72,0.00,,,-99.99,,2013-03-01 20:00:00,
2013-03-01 15:21:00,36.0,28.0,-100.00,North,352,8.0,-999.0,72,0.00,,,-99.99,,2013-03-01 20:21:00,
2013-03-01 15:32:00,36.0,28.0,-100.00,North,352,8.0,-999.0,72,0.00,,,-99.99,,2013-03-01 20:32:00,
2013-03-01 15:42:00,36.0,28.0,-100.00,North,352,8.0,-999.0,72,0.00,,,-99.99,,2013-03-01 20:42:00,
2013-03-01 15:52:00,36.0,28.0,-100.00,North,352,8.0,-999.0,72,0.00,,,-99.99,,2013-03-01 20:52:00,
2013-03-01 16:00:00,36.0,28.0,-100.00,North,3,6.0,-999.0,74,0.00,,,-99.99,,2013-03-01 21:00:00,
2013-03-01 16:21:00,36.0,28.0,-100.00,North,3,6.0,-999.0,74,0.00,,,-99.99,,2013-03-01 21:21:00,
2013-03-01 16:32:00,36.0,28.0,-100.00,North,3,6.0,-999.0,74,0.00,,,-99.99,,2013-03-01 21:32:00,
2013-03-01 16:42:00,36.0,28.0,-100.00,North,3,6.0,-999.0,74,0.00,,,-99.99,,2013-03-01 21:42:00,
2013-03-01 16:52:00,36.0,28.0,-100.00,North,3,6.0,-999.0,74,0.00,,,-99.99,,2013-03-01 21:52:00,
2013-03-01 17:00:00,36.0,29.0,-100.00,NNW,335,4.0,-999.0,74,0.00,,,-99.99,,2013-03-01 22:00:00,
2013-03-01 17:22:00,36.0,29.0,-100.00,NNW,335,4.0,-999.0,74,0.00,,,-99.99,,2013-03-01 22:22:00,
2013-03-01 17:32:00,36.0,29.0,-100.00,NNW,335,4.0,-999.0,74,0.00,,,-99.99,,2013-03-01 22:32:00,
2013-03-01 17:42:00,36.0,29.0,-100.00,NNW,335,4.0,-999.0,74,0.00,,,-99.99,,2013-03-01 22:42:00,
2013-03-01 17:52:00,36.0,29.0,-100.00,NNW,335,4.0,-999.0,74,0.00,,,-99.99,,2013-03-01 22:52:00,
2013-03-01 18:00:00,35.0,30.0,-100.00,WNW,297,2.0,-999.0,79,0.00,,,-99.99,,2013-03-01 23:00:00,
2013-03-01 18:21:00,35.0,30.0,-100.00,WNW,297,2.0,-999.0,79,0.00,,,-99.99,,2013-03-01 23:21:00,
2013-03-01 18:32:00,35.0,30.0,-100.00,WNW,297,2.0,-999.0,79,0.00,,,-99.99,,2013-03-01 23:32:00,
2013-03-01 18:42:00,35.0,30.0,-100.00,WNW,297,2.0,-999.0,79,0.00,,,-99.99,,2013-03-01 23:42:00,
2013-03-01 18:52:00,35.0,30.0,-100.00,WNW,297,2.0,-999.0,79,0.00,,,-99.99,,2013-03-01 23:52:00,
2013-03-01 19:00:00,35.0,30.0,-100.00,NW,320,3.0,-999.0,80,0.00,,,-99.99,,2013-03-02 00:00:00,
2013-03-01 19:22:00,35.0,30.0,-100.00,NW,320,3.0,-999.0,80,0.00,,,-99.99,,2013-03-02 00:22:00,
2013-03-01 19:32:00,35.0,30.0,-100.00,NW,320,3.0,-999.0,80,0.00,,,-99.99,,2013-03-02 00:32:00,
2013-03-01 19:42:00,35.0,30.0,-100.00,NW,320,3.0,-999.0,80,0.00,,,-99.99,,2013-03-02 00:42:00,
2013-03-01 20:00:00,34.0,30.0,-100.00,NNE,33,3.0,-999.0,86,0.00,,,-99.99,,2013-03-02 01:00:00,
2013-03-01 20:21:00,34.0,30.0,-100.00,NNE,33,3.0,-999.0,86,0.00,,,-99.99,,2013-03-02 01:21:00,
2013-03-01 20:32:00,34.0,30.0,-100.00,NNE,33,3.0,-999.0,86,0.00,,,-99.99,,2013-03-02 01:32:00,
2013-03-01 20:42:00,34.0,30.0,-100.00,NNE,33,3.0,-999.0,86,0.00,,,-99.99,,2013-03-02 01:42:00,
2013-03-01 20:52:00,34.0,30.0,-100.00,NNE,33,3.0,-999.0,86,0.00,,,-99.99,,2013-03-02 01:52:00,
2013-03-01 21:00:00,33.0,31.0,-100.00,West,278,1.0,-999.0,93,0.00,,,-99.99,,2013-03-02 02:00:00,
2013-03-01 21:22:00,33.0,31.0,-100.00,West,278,1.0,-999.0,93,0.00,,,-99.99,,2013-03-02 02:22:00,
2013-03-01 21:32:00,33.0,31.0,-100.00,West,278,1.0,-999.0,93,0.00,,,-99.99,,2013-03-02 02:32:00,
2013-03-01 21:42:00,33.0,31.0,-100.00,West,278,1.0,-999.0,93,0.00,,,-99.99,,2013-03-02 02:42:00,
2013-03-01 21:52:00,33.0,31.0,-100.00,West,278,1.0,-999.0,93,0.00,,,-99.99,,2013-03-02 02:52:00,
2013-03-01 22:00:00,32.0,32.0,-100.00,WNW,296,2.0,-999.0,97,0.00,,,-99.99,,2013-03-02 03:00:00,
2013-03-01 22:22:00,32.0,32.0,-100.00,WNW,296,2.0,-999.0,97,0.00,,,-99.99,,2013-03-02 03:22:00,
2013-03-01 22:32:00,32.0,32.0,-100.00,WNW,296,2.0,-999.0,97,0.00,,,-99.99,,2013-03-02 03:32:00,
2013-03-01 22:42:00,32.0,32.0,-100.00,WNW,296,2.0,-999.0,97,0.00,,,-99.99,,2013-03-02 03:42:00,
2013-03-01 22:52:00,32.0,32.0,-100.00,WNW,296,2.0,-999.0,97,0.00,,,-99.99,,2013-03-02 03:52:00,
2013-03-01 23:00:00,32.0,32.0,-100.00,WNW,293,2.0,-999.0,99,0.00,,,-99.99,,2013-03-02 04:00:00,
2013-03-01 23:22:00,32.0,32.0,-100.00,WNW,293,2.0,-999.0,99,0.00,,,-99.99,,2013-03-02 04:22:00,
2013-03-01 23:32:00,32.0,32.0,-100.00,WNW,293,2.0,-999.0,99,0.00,,,-99.99,,2013-03-02 04:32:00,
2013-03-01 23:42:00,32.0,32.0,-100.00,WNW,293,2.0,-999.0,99,0.00,,,-99.99,,2013-03-02 04:42:00,
2013-03-01 23:52:00,32.0,32.0,-100.00,WNW,293,2.0,-999.0,99,0.00,,,-99.99,,2013-03-02 04:52:00,